Time,TemperatureF,DewpointF,PressureIn,WindDirection,WindDirectionDegrees,WindSpeedMPH,WindSpeedGustMPH,Humidity,HourlyPrecipIn,Conditions,Clouds,dailyrainin,SoftwareType,DateUTC
2013-07-03 00:02:00,76.9,74.0,30.09,SSW,207,2.0,5.0,91,0.00,,,0.00,weatherlink.com 1.10,2013-07-03 04:02:00,
2013-07-03 00:17:00,76.8,75.0,30.09,SSE,165,4.0,9.0,93,0.00,,,0.00,weatherlink.com 1.10,2013-07-03 04:17:00,
2013-07-03 00:32:00,76.4,74.0,30.07,SSE,155,2.0,5.0,93,0.00,,,0.00,weatherlink.com 1.10,2013-07-03 04:32:00,
2013-07-03 00:47:00,76.1,74.0,30.07,ESE,117,1.0,5.0,94,0.00,,,0.00,weatherlink.com 1.10,2013-07-03 04:47:00,
2013-07-03 01:01:00,75.9,74.0,30.07,SE,134,0.0,5.0,95,0.00,,,0.00,weatherlink.com 1.10,2013-07-03 05:01:00,
2013-07-03 01:16:00,75.8,74.0,30.08,SSE,155,1.0,3.0,95,0.00,,,0.00,weatherlink.com 1.10,2013-07-03 05:16:00,
2013-07-03 01:31:00,75.6,74.0,30.08,SE,146,1.0,3.0,96,0.00,,,0.00,weatherlink.com 1.10,2013-07-03 05:31:00,
2013-07-03 01:46:00,75.6,74.0,30.08,SSE,153,2.0,5.0,96,0.00,,,0.00,weatherlink.com 1.10,2013-07-03 05:46:00,
2013-07-03 02:01:00,75.7,75.0,30.08,SE,140,2.0,6.0,96,0.00,,,0.00,weatherlink.com 1.10,2013-07-03 06:01:00,
2013-07-03 02:31:00,75.2,74.0,30.07,SE,138,0.0,4.0,95,0.00,,,0.00,weatherlink.com 1.10,2013-07-03 06:31:00,
2013-07-03 02:46:00,74.9,73.0,30.07,ENE,59,3.0,4.0,95,0.00,,,0.00,weatherlink.com 1.10,2013-07-03 06:46:00,
2013-07-03 03:01:00,74.8,74.0,30.07,ESE,104,1.0,3.0,96,0.00,,,0.00,weatherlink.com 1.10,2013-07-03 07:01:00,
2013-07-03 03:16:00,74.6,73.0,30.07,SE,141,0.0,3.0,96,0.00,,,0.00,weatherlink.com 1.10,2013-07-03 07:16:00,
2013-07-03 03:31:00,74.6,73.0,30.07,SE,135,0.0,3.0,96,0.00,,,0.00,weatherlink.com 1.10,2013-07-03 07:31:00,
2013-07-03 03:46:00,74.6,73.0,30.07,ENE,73,0.0,3.0,96,0.00,,,0.00,weatherlink.com 1.10,2013-07-03 07:46:00,
2013-07-03 04:01:00,74.5,73.0,30.07,SSE,159,0.0,3.0,95,0.00,,,0.00,weatherlink.com 1.10,2013-07-03 08:01:00,
2013-07-03 04:16:00,74.5,73.0,30.06,SE,145,0.0,3.0,95,0.00,,,0.00,weatherlink.com 1.10,2013-07-03 08:16:00,
2013-07-03 04:31:00,74.6,73.0,30.06,SE,135,1.0,4.0,94,0.00,,,0.00,weatherlink.com 1.10,2013-07-03 08:31:00,
2013-07-03 05:01:00,74.6,73.0,30.06,SSE,149,0.0,3.0,93,0.00,,,0.00,weatherlink.com 1.10,2013-07-03 09:01:00,
2013-07-03 05:16:00,74.6,73.0,30.06,ESE,111,2.0,3.0,93,0.00,,,0.00,weatherlink.com 1.10,2013-07-03 09:16:00,
2013-07-03 05:46:00,74.9,73.0,30.06,SSE,149,1.0,6.0,93,0.00,,,0.00,weatherlink.com 1.10,2013-07-03 09:46:00,
2013-07-03 06:01:00,75.0,73.0,30.06,SSE,162,2.0,4.0,93,0.00,,,0.00,weatherlink.com 1.10,2013-07-03 10:01:00,
2013-07-03 06:16:00,75.1,73.0,30.06,SE,131,0.0,4.0,93,0.00,,,0.00,weatherlink.com 1.10,2013-07-03 10:16:00,
2013-07-03 06:31:00,75.2,73.0,30.06,SSW,192,1.0,4.0,93,0.00,,,0.00,weatherlink.com 1.10,2013-07-03 10:31:00,
2013-07-03 07:01:00,75.8,74.0,30.07,SE,134,3.0,5.0,93,0.00,,,0.00,weatherlink.com 1.10,2013-07-03 11:01:00,
2013-07-03 07:16:00,76.7,74.0,30.07,East,88,1.0,5.0,92,0.00,,,0.00,weatherlink.com 1.10,2013-07-03 11:16:00,
2013-07-03 07:46:00,76.5,75.0,30.09,SE,137,1.0,6.0,94,0.00,,,0.00,weatherlink.com 1.10,2013-07-03 11:46:00,
2013-07-03 08:04:00,76.7,75.0,30.10,SE,146,2.0,4.0,94,0.00,,,0.00,weatherlink.com 1.10,2013-07-03 12:04:00,
2013-07-03 08:22:00,77.2,75.0,30.10,South,184,3.0,6.0,93,0.00,,,0.00,weatherlink.com 1.10,2013-07-03 12:22:00,
2013-07-03 08:58:00,78.7,76.0,30.10,SSE,155,1.0,6.0,91,0.00,,,0.00,weatherlink.com 1.10,2013-07-03 12:58:00,
2013-07-03 09:18:00,79.2,76.0,30.11,NE,48,3.0,8.0,90,0.00,,,0.00,weatherlink.com 1.10,2013-07-03 13:18:00,
2013-07-03 09:36:00,79.5,76.0,30.11,ESE,107,5.0,8.0,89,0.00,,,0.00,weatherlink.com 1.10,2013-07-03 13:36:00,
2013-07-03 09:54:00,79.8,76.0,30.10,South,171,2.0,7.0,89,0.00,,,0.00,weatherlink.com 1.10,2013-07-03 13:54:00,
2013-07-03 10:33:00,81.2,77.0,30.11,South,179,1.0,6.0,86,0.00,,,0.00,weatherlink.com 1.10,2013-07-03 14:33:00,
2013-07-03 11:09:00,82.6,77.0,30.11,SSE,155,4.0,7.0,82,0.00,,,0.00,weatherlink.com 1.10,2013-07-03 15:09:00,
2013-07-03 12:22:00,86.1,77.0,30.10,SE,134,1.0,12.0,74,0.00,,,0.00,weatherlink.com 1.10,2013-07-03 16:22:00,
2013-07-03 13:00:00,87.9,77.0,30.09,SE,127,5.0,12.0,70,0.00,,,0.00,weatherlink.com 1.10,2013-07-03 17:00:00,
2013-07-03 13:37:00,87.7,77.0,30.08,WSW,244,7.0,11.0,70,0.00,,,0.00,weatherlink.com 1.10,2013-07-03 17:37:00,
2013-07-03 13:55:00,87.9,77.0,30.07,ENE,75,2.0,9.0,70,0.00,,,0.00,weatherlink.com 1.10,2013-07-03 17:55:00,
2013-07-03 14:13:00,87.5,78.0,30.07,South,181,6.0,6.0,73,0.00,,,0.00,weatherlink.com 1.10,2013-07-03 18:13:00,
2013-07-03 14:31:00,88.6,77.0,30.06,SSW,202,3.0,13.0,69,0.00,,,0.00,weatherlink.com 1.10,2013-07-03 18:31:00,
2013-07-03 15:09:00,89.0,78.0,30.05,South,183,6.0,8.0,70,0.00,,,0.00,weatherlink.com 1.10,2013-07-03 19:09:00,
2013-07-03 15:27:00,83.6,76.0,30.06,SE,135,3.0,15.0,78,0.06,,,0.06,weatherlink.com 1.10,2013-07-03 19:27:00,
2013-07-03 16:05:00,72.1,71.0,30.08,ENE,63,4.0,9.0,96,0.66,,,0.66,weatherlink.com 1.10,2013-07-03 20:05:00,
2013-07-03 16:23:00,71.8,71.0,30.08,SE,127,0.0,6.0,98,0.66,,,0.69,weatherlink.com 1.10,2013-07-03 20:23:00,
2013-07-03 16:42:00,72.1,72.0,30.09,SSE,159,1.0,6.0,99,0.66,,,0.76,weatherlink.com 1.10,2013-07-03 20:42:00,
2013-07-03 16:58:00,72.6,72.0,30.09,SE,131,2.0,8.0,99,0.20,,,0.82,weatherlink.com 1.10,2013-07-03 20:58:00,
2013-07-03 17:12:00,73.4,73.0,30.09,SE,140,2.0,6.0,100,0.28,,,0.96,weatherlink.com 1.10,2013-07-03 21:12:00,
2013-07-03 17:27:00,74.3,74.0,30.08,SE,129,3.0,11.0,100,0.30,,,1.00,weatherlink.com 1.10,2013-07-03 21:27:00,
2013-07-03 17:42:00,74.6,75.0,30.08,SSW,193,4.0,8.0,100,0.31,,,1.08,weatherlink.com 1.10,2013-07-03 21:42:00,
2013-07-03 17:57:00,74.5,75.0,30.07,SSW,192,0.0,3.0,100,0.29,,,1.11,weatherlink.com 1.10,2013-07-03 21:57:00,
2013-07-03 18:12:00,74.2,74.0,30.08,SSE,157,1.0,5.0,100,0.17,,,1.14,weatherlink.com 1.10,2013-07-03 22:12:00,
2013-07-03 18:42:00,74.9,75.0,30.07,SE,134,1.0,5.0,100,0.10,,,1.18,weatherlink.com 1.10,2013-07-03 22:42:00,
2013-07-03 18:57:00,75.1,75.0,30.07,SE,130,0.0,3.0,100,0.06,,,1.18,weatherlink.com 1.10,2013-07-03 22:57:00,
2013-07-03 19:12:00,75.4,75.0,30.07,South,176,0.0,0.0,100,0.03,,,1.18,weatherlink.com 1.10,2013-07-03 23:12:00,
2013-07-03 19:27:00,75.4,75.0,30.07,East,84,0.0,0.0,100,0.01,,,1.18,weatherlink.com 1.10,2013-07-03 23:27:00,
2013-07-03 19:42:00,75.4,75.0,30.07,SSE,148,0.0,0.0,100,0.00,,,1.18,weatherlink.com 1.10,2013-07-03 23:42:00,
2013-07-03 19:57:00,75.4,75.0,30.07,SSW,196,0.0,0.0,100,0.00,,,1.18,weatherlink.com 1.10,2013-07-03 23:57:00,
2013-07-03 20:12:00,75.3,75.0,30.08,ENE,63,0.0,3.0,100,0.00,,,1.18,weatherlink.com 1.10,2013-07-04 00:12:00,
2013-07-03 20:27:00,75.1,75.0,30.08,NNE,17,0.0,0.0,100,0.00,,,1.18,weatherlink.com 1.10,2013-07-04 00:27:00,
2013-07-03 21:12:00,74.7,75.0,30.08,SSE,148,0.0,3.0,100,0.00,,,1.18,weatherlink.com 1.10,2013-07-04 01:12:00,
2013-07-03 21:27:00,74.6,75.0,30.09,ESE,111,0.0,1.0,100,0.00,,,1.18,weatherlink.com 1.10,2013-07-04 01:27:00,
2013-07-03 21:42:00,74.5,75.0,30.09,SE,128,2.0,4.0,100,0.00,,,1.18,weatherlink.com 1.10,2013-07-04 01:42:00,
2013-07-03 22:12:00,74.3,74.0,30.11,ENE,76,0.0,4.0,100,0.00,,,1.18,weatherlink.com 1.10,2013-07-04 02:12:00,
2013-07-03 22:42:00,74.3,74.0,30.11,NE,56,0.0,3.0,100,0.00,,,1.18,weatherlink.com 1.10,2013-07-04 02:42:00,
2013-07-03 22:57:00,74.3,74.0,30.12,East,98,0.0,6.0,100,0.01,,,1.19,weatherlink.com 1.10,2013-07-04 02:57:00,
2013-07-03 23:12:00,74.2,74.0,30.12,SSE,150,0.0,5.0,100,0.01,,,1.19,weatherlink.com 1.10,2013-07-04 03:12:00,
2013-07-03 23:42:00,74.2,74.0,30.12,SSE,147,0.0,4.0,100,0.01,,,1.19,weatherlink.com 1.10,2013-07-04 03:42:00,
2013-07-03 23:57:00,74.1,74.0,30.13,East,82,0.0,3.0,100,0.00,,,1.19,weatherlink.com 1.10,2013-07-04 03:57:00,